(264535) = 2005 OC18 = 2001 RR155

Discovered at Socorro on 2001-09-10 by LINEAR.

Orbit

Orbit type: Main Belt

Note: WebGL enabled browser required.

epoch2024-03-31.0
epoch JD2460400.5
perihelion date2023-01-07.32095
perihelion JD2459951.82096
argument of perihelion (°)105.08557
ascending node (°)315.74474
inclination (°)13.55470
eccentricity0.1825584
perihelion distance (AU)2.1149213
Tisserand w.r.t. Jupiter3.4
ΔV w.r.t. Earth (km/sec)10.0
semimajor axis (AU)2.5872445
mean anomaly (°)106.26333
mean daily motion (°/day)0.23683600
aphelion distance (AU)3.060
period (years)4.16
P-vector [x]0.46862993
P-vector [y]0.69343871
P-vector [z]0.54729220
Q-vector [x]-0.86812120
Q-vector [y]0.47620614
Q-vector [z]0.13997606
absolute magnitude16.55
phase slope0.15
uncertainty0
referenceMPEC 2024-D35
observations used344
oppositions13
arc length (days)8209
first opposition used2001
last opposition used2024
residual rms (arc-secs)0.79
perturbers coarse indicatorM-v
perturbers precise indicator003Ek
first observation date used2001-08-25.0
last observation date used2024-02-15.0
computer nameMPCLINUX
JD of orbit computation2456523.307560
perihelion JD uncertainty (days)1.0024E-04
argument of perihelion uncertainty (°)2.4824E-05
ascending node uncertainty (°)8.2266E-06
inclination uncertainty (°)3.5993E-06
eccentricity uncertainty 2.2796E-08
perihelion distance uncertainty (AU)5.0953E-08
Minimum Orbit Intersection Distances (in AU)
for orbit epoch: 2460400.5, reference: E2024-GF4
Mercury1.81255
Venus1.42396
Earth1.17479
Mars0.62913
Jupiter2.34376
Saturn6.77514
Uranus15.7356
Neptune27.4755

Observations

346 total observations over interval: 2001 08 25.34840 – 2024 02 15.569720
These data are available for download (format description).

Date (UT) J2000 RA J2000 Dec Magn Location Ref
2001 08 25.34840 23 59 30.94 +14 15 34.1 19.2   704 – Lincoln Laboratory ETS, New Mexico MPS 179116
2001 08 25.36134 23 59 30.41 +14 15 39.5 19.7   704 – Lincoln Laboratory ETS, New Mexico MPS 179116
2001 08 25.37406 23 59 29.94 +14 15 43.2 19.7   704 – Lincoln Laboratory ETS, New Mexico MPS 179116
2001 09 10.32271 23 45 59.74 +15 17 51.8 19.7   704 – Lincoln Laboratory ETS, New Mexico MPS 178261
2001 09 10.35001 23 45 58.05 +15 17 55.7 19.8   704 – Lincoln Laboratory ETS, New Mexico MPS 178261
2001 09 10.36366 23 45 57.22 +15 17 57.3 20.0   704 – Lincoln Laboratory ETS, New Mexico MPS 178261
2001 09 17.25647 23 38 50.49 +15 26 33.9 19.5   644 – Palomar Mountain/NEAT MPS 178261
2001 09 17.27817 23 38 49.07 +15 26 34.3 19.9   644 – Palomar Mountain/NEAT MPS 178261
2001 09 17.29935 23 38 47.67 +15 26 35.1 19.3   644 – Palomar Mountain/NEAT MPS 178261
2001 09 29.18107 23 26 20.41 +15 16 37.3 19.9   644 – Palomar Mountain/NEAT MPS 179116
2001 09 29.20231 23 26 19.12 +15 16 34.7 19.9   644 – Palomar Mountain/NEAT MPS 179116
2001 09 29.22349 23 26 17.82 +15 16 32.2 20.0   644 – Palomar Mountain/NEAT MPS 179116
2005 07 30.38096 22 53 19.89 -01 27 23.1 20.1   644 – Palomar Mountain/NEAT MPS 138935
2005 07 30.40237 22 53 19.17 -01 27 18.1 20.1   644 – Palomar Mountain/NEAT MPS 138935
2005 07 30.42586 22 53 18.36 -01 27 12.4 20.5   644 – Palomar Mountain/NEAT MPS 138935
2005 07 31.38574 22 52 46.13 -01 23 27.1 20.0   644 – Palomar Mountain/NEAT MPS 138935
2005 07 31.40960 22 52 45.25 -01 23 21.0 20.2   644 – Palomar Mountain/NEAT MPS 138935
2005 07 31.43838 22 52 44.21 -01 23 15.0 20.1   644 – Palomar Mountain/NEAT MPS 138935
2005 09 10.223327 22 15 03.375 -00 26 37.39 20.06 V 645 – Apache Point-Sloan Digital Sky Survey MPS 390473
2005 09 10.226799 22 15 03.160 -00 26 37.50 21.01   645 – Apache Point-Sloan Digital Sky Survey MPS 390473
2005 09 13.207517 22 12 08.179 -00 28 30.47 19.95 V 645 – Apache Point-Sloan Digital Sky Survey MPS 390473
2005 09 13.210989 22 12 07.975 -00 28 30.62 20.83   645 – Apache Point-Sloan Digital Sky Survey MPS 390473
2005 09 15.191087 22 10 16.350 -00 29 55.88 19.95 V 645 – Apache Point-Sloan Digital Sky Survey MPS 390473
2005 09 15.194559 22 10 16.162 -00 29 56.09 20.89   645 – Apache Point-Sloan Digital Sky Survey MPS 390473
2005 09 22.195337 22 04 18.194 -00 35 30.72 20.11 V 645 – Apache Point-Sloan Digital Sky Survey MPS 390474
2005 09 22.198809 22 04 18.033 -00 35 30.91 21.10   645 – Apache Point-Sloan Digital Sky Survey MPS 390474
2005 09 24.187537 22 02 48.518 -00 37 06.77 20.17 V 645 – Apache Point-Sloan Digital Sky Survey MPS 390474
2005 09 24.191009 22 02 48.364 -00 37 06.91 21.04   645 – Apache Point-Sloan Digital Sky Survey MPS 390474
2005 10 12.159047 21 54 24.379 -00 44 55.54 20.33 V 645 – Apache Point-Sloan Digital Sky Survey MPS 390474
2005 10 12.162519 21 54 24.336 -00 44 55.51 21.03   645 – Apache Point-Sloan Digital Sky Survey MPS 390474
2005 10 25.159387 21 54 32.702 -00 35 36.97 20.70 V 645 – Apache Point-Sloan Digital Sky Survey MPS 390474
2005 10 25.162859 21 54 32.743 -00 35 36.65 21.71   645 – Apache Point-Sloan Digital Sky Survey MPS 390474
2005 10 27.164567 21 55 01.332 -00 32 41.95 20.63 V 645 – Apache Point-Sloan Digital Sky Survey MPS 390474
2005 10 27.168039 21 55 01.378 -00 32 41.65 21.44   645 – Apache Point-Sloan Digital Sky Survey MPS 390474
2005 10 30.133187 21 55 56.664 -00 27 34.98 20.69 V 645 – Apache Point-Sloan Digital Sky Survey MPS 390474
2005 10 30.136659 21 55 56.738 -00 27 34.65 21.55   645 – Apache Point-Sloan Digital Sky Survey MPS 390474
2005 11 02.218887 21 57 09.908 -00 21 13.74 20.74 V 645 – Apache Point-Sloan Digital Sky Survey MPS 390474
2005 11 02.222359 21 57 09.993 -00 21 13.32 21.64   645 – Apache Point-Sloan Digital Sky Survey MPS 390474
2005 11 05.191757 21 58 35.502 -00 14 04.59 21.14 V 645 – Apache Point-Sloan Digital Sky Survey MPS 390474
2005 11 05.195229 21 58 35.609 -00 14 03.88 22.03   645 – Apache Point-Sloan Digital Sky Survey MPS 390474
2005 11 06.139967 21 59 05.862 -00 11 34.67 20.86 V 645 – Apache Point-Sloan Digital Sky Survey MPS 390474
2005 11 06.143439 21 59 05.965 -00 11 34.14 21.70   645 – Apache Point-Sloan Digital Sky Survey MPS 390474
2005 11 11.144777 22 02 08.574 +00 03 21.57 21.01 V 645 – Apache Point-Sloan Digital Sky Survey MPS 390474
2005 11 11.148249 22 02 08.715 +00 03 22.13 21.81   645 – Apache Point-Sloan Digital Sky Survey MPS 390474
2005 11 13.184107 22 03 33.586 +00 10 17.54 20.92 V 645 – Apache Point-Sloan Digital Sky Survey MPS 390474
2005 11 13.187579 22 03 33.743 +00 10 18.40 22.22   645 – Apache Point-Sloan Digital Sky Survey MPS 390474
2006 11 27.47497 10 12 14.86 +14 28 36.1 20.8 V G96 – Mt. Lemmon Survey MPS 190313
2006 11 27.48156 10 12 15.12 +14 28 32.8 20.7 V G96 – Mt. Lemmon Survey MPS 190313
2006 11 27.48818 10 12 15.44 +14 28 29.4 21.7 V G96 – Mt. Lemmon Survey MPS 190313
2006 11 27.49470 10 12 15.69 +14 28 26.9 21.1 V G96 – Mt. Lemmon Survey MPS 190313
2006 12 23.47398 10 23 44.98 +11 27 53.4 20.6 V G96 – Mt. Lemmon Survey MPS 191856
2006 12 23.48160 10 23 44.98 +11 27 50.7 21.1 V G96 – Mt. Lemmon Survey MPS 191856
2006 12 23.48913 10 23 44.98 +11 27 48.6 20.7 V G96 – Mt. Lemmon Survey MPS 191856
2006 12 23.49672 10 23 45.02 +11 27 45.5 21.3 V G96 – Mt. Lemmon Survey MPS 191856
2007 01 10.49644 10 19 48.68 +10 05 29.6 20.2 V G96 – Mt. Lemmon Survey MPS 195439
2007 01 10.50269 10 19 48.46 +10 05 28.2 20.1 V G96 – Mt. Lemmon Survey MPS 195439
2007 01 10.50868 10 19 48.28 +10 05 26.9 20.1 V G96 – Mt. Lemmon Survey MPS 195439
2007 01 10.51471 10 19 48.07 +10 05 25.5 20.2 V G96 – Mt. Lemmon Survey MPS 195439
2007 01 29.40987 10 05 10.69 +09 20 27.5 20.1 V 691 – Steward Observatory, Kitt Peak-Spacewatch MPS 197995
2007 01 29.42774 10 05 09.59 +09 20 26.1 20.0 V 691 – Steward Observatory, Kitt Peak-Spacewatch MPS 197995
2007 01 29.44559 10 05 08.50 +09 20 24.6 19.9 V 691 – Steward Observatory, Kitt Peak-Spacewatch MPS 197995
2007 02 08.20758 09 54 43.72 +09 10 34.9   691 – Steward Observatory, Kitt Peak-Spacewatch MPS 198624
2007 02 08.21769 09 54 43.02 +09 10 34.5   691 – Steward Observatory, Kitt Peak-Spacewatch MPS 198624
2007 02 08.22781 09 54 42.33 +09 10 34.3   691 – Steward Observatory, Kitt Peak-Spacewatch MPS 198624
2007 02 15.38281 09 46 39.03 +09 07 04.0 19.3 R 644 – Palomar Mountain/NEAT MPS 200275
2007 02 15.40327 09 46 37.61 +09 07 03.6 19.2 R 644 – Palomar Mountain/NEAT MPS 200275
2007 02 15.42381 09 46 36.18 +09 07 03.2 19.2 R 644 – Palomar Mountain/NEAT MPS 200275
2007 02 16.36183 09 45 33.27 +09 06 44.5 19.2 R 644 – Palomar Mountain/NEAT MPS 200275
2007 02 16.38221 09 45 31.86 +09 06 44.5 19.3 R 644 – Palomar Mountain/NEAT MPS 200275
2007 02 16.40254 09 45 30.48 +09 06 43.9 19.0 R 644 – Palomar Mountain/NEAT MPS 200275
2007 03 09.19987 09 25 22.80 +09 00 43.8 20.4 V 703 – Catalina Sky Survey MPS 202290
2007 03 09.20800 09 25 22.36 +09 00 42.6 20.2 V 703 – Catalina Sky Survey MPS 202290
2007 03 09.21611 09 25 21.97 +09 00 40.9 19.9 V 703 – Catalina Sky Survey MPS 202290
2007 03 09.22424 09 25 21.72 +09 00 41.6 20.0 V 703 – Catalina Sky Survey MPS 202290
2009 07 31.28222 21 39 20.86 -13 32 14.4 20.5 V 691 – Steward Observatory, Kitt Peak-Spacewatch MPS 290120
2009 07 31.29992 21 39 19.84 -13 32 13.8 20.6 V 691 – Steward Observatory, Kitt Peak-Spacewatch MPS 290120
2009 07 31.31520 21 39 18.92 -13 32 13.4 20.5 V 691 – Steward Observatory, Kitt Peak-Spacewatch MPS 290120
2011 01 03.31757 08 55 41.73 +24 43 34.2 19.4 V 703 – Catalina Sky Survey MPS 363314
2011 01 03.32564 08 55 41.34 +24 43 32.9 20.4 V 703 – Catalina Sky Survey MPS 363314
2011 01 03.33366 08 55 40.90 +24 43 31.9 19.7 V 703 – Catalina Sky Survey MPS 363314
2011 01 03.34170 08 55 40.36 +24 43 32.2 19.7 V 703 – Catalina Sky Survey MPS 363314
2011 01 08.40143 08 50 41.35 +24 33 55.2 19.5 V G96 – Mt. Lemmon Survey MPS 365381
2011 01 08.40902 08 50 40.84 +24 33 54.4 19.4 V G96 – Mt. Lemmon Survey MPS 365381
2011 01 08.41659 08 50 40.38 +24 33 53.3 19.4 V G96 – Mt. Lemmon Survey MPS 365381
2011 01 08.42418 08 50 39.87 +24 33 52.5 19.4 V G96 – Mt. Lemmon Survey MPS 365381
2011 01 09.29574 08 49 44.72 +24 32 07.9 19.4 V G96 – Mt. Lemmon Survey MPS 365381
